Wetterdaten: Freitag, 20.03.2015
Datum Zeit Temp. A. Feuchte A. Luftdruck Regen Wind Richtung Richtung Sonnenschein ET UV Solar Taupunkt Windchill Windben Empfang
20.03.2015 00:00 1,2 C 63 % 1024,9 hPa 0,0 l/m 0,0 km/h (0 Bft) S 186 0 min 0,000 mm 0,0 UV-I 0 W/m -5,0 C 1,2 C 0,0 km/h (0 Bft) 0,00 %
20.03.2015 00:15 0,6 C 67 % 1024,9 hPa 0,0 l/m 0,0 km/h (0 Bft) S 186 0 min 0,000 mm 0,0 UV-I 0 W/m -4,8 C 0,6 C 0,0 km/h (0 Bft) 0,00 %
20.03.2015 00:30 0,4 C 68 % 1025,2 hPa 0,0 l/m 0,0 km/h (0 Bft) S 179 0 min 0,000 mm 0,0 UV-I 0 W/m -4,8 C 0,4 C 0,0 km/h (0 Bft) 0,00 %
20.03.2015 00:45 0,7 C 65 % 1025,1 hPa 0,0 l/m 0,0 km/h (0 Bft) S 176 0 min 0,000 mm 0,0 UV-I 0 W/m -5,1 C 0,7 C 0,0 km/h (0 Bft) 0,00 %
20.03.2015 01:00 0,6 C 65 % 1024,9 hPa 0,0 l/m 0,0 km/h (0 Bft) S 173 0 min 0,000 mm 0,0 UV-I 0 W/m -5,2 C 0,6 C 0,0 km/h (0 Bft) 0,00 %
20.03.2015 01:15 0,4 C 67 % 1025,1 hPa 0,0 l/m 0,0 km/h (0 Bft) S-SW 192 0 min 0,000 mm 0,0 UV-I 0 W/m -5,0 C 0,4 C 0,0 km/h (0 Bft) 0,00 %
20.03.2015 01:30 0,4 C 65 % 1024,9 hPa 0,0 l/m 0,0 km/h (0 Bft) S 182 0 min 0,000 mm 0,0 UV-I 0 W/m -5,4 C 0,4 C 0,0 km/h (0 Bft) 0,00 %
20.03.2015 01:45 -0,1 C 70 % 1024,9 hPa 0,0 l/m 0,0 km/h (0 Bft) S 180 0 min 0,000 mm 0,0 UV-I 0 W/m -4,9 C -0,1 C 0,0 km/h (0 Bft) 0,00 %
20.03.2015 02:00 -0,5 C 71 % 1025,1 hPa 0,0 l/m 0,0 km/h (0 Bft) S 182 0 min 0,000 mm 0,0 UV-I 0 W/m -5,1 C -0,5 C 0,0 km/h (0 Bft) 0,00 %
20.03.2015 02:15 -0,5 C 70 % 1025,0 hPa 0,0 l/m 0,0 km/h (0 Bft) S 191 0 min 0,000 mm 0,0 UV-I 0 W/m -5,3 C -0,5 C 0,0 km/h (0 Bft) 0,00 %
20.03.2015 02:30 -0,2 C 68 % 1024,7 hPa 0,0 l/m 0,0 km/h (0 Bft) S 173 0 min 0,000 mm 0,0 UV-I 0 W/m -5,4 C -0,2 C 0,0 km/h (0 Bft) 0,00 %
20.03.2015 02:45 -0,5 C 71 % 1024,6 hPa 0,0 l/m 0,0 km/h (0 Bft) S 189 0 min 0,000 mm 0,0 UV-I 0 W/m -5,1 C -0,5 C 0,0 km/h (0 Bft) 0,00 %
20.03.2015 03:00 -0,5 C 70 % 1024,4 hPa 0,0 l/m 0,0 km/h (0 Bft) S 184 0 min 0,000 mm 0,0 UV-I 0 W/m -5,3 C -0,5 C 0,0 km/h (0 Bft) 0,00 %
20.03.2015 03:15 -0,8 C 72 % 1024,4 hPa 0,0 l/m 0,0 km/h (0 Bft) S 177 0 min 0,000 mm 0,0 UV-I 0 W/m -5,2 C -0,8 C 0,0 km/h (0 Bft) 0,00 %
20.03.2015 03:30 -1,3 C 74 % 1024,4 hPa 0,0 l/m 0,0 km/h (0 Bft) S-SW 192 0 min 0,000 mm 0,0 UV-I 0 W/m -5,3 C -1,3 C 0,0 km/h (0 Bft) 0,00 %
20.03.2015 03:45 -1,0 C 73 % 1024,7 hPa 0,0 l/m 0,0 km/h (0 Bft) S 188 0 min 0,000 mm 0,0 UV-I 0 W/m -5,2 C -1,0 C 0,0 km/h (0 Bft) 0,00 %
20.03.2015 04:00 -1,0 C 73 % 1024,7 hPa 0,0 l/m 0,0 km/h (0 Bft) S-SO 147 0 min 0,000 mm 0,0 UV-I 0 W/m -5,2 C -1,0 C 0,0 km/h (0 Bft) 0,00 %
20.03.2015 04:15 -0,8 C 73 % 1024,5 hPa 0,0 l/m 0,0 km/h (0 Bft) S 190 0 min 0,000 mm 0,0 UV-I 0 W/m -5,0 C -0,8 C 0,0 km/h (0 Bft) 0,00 %
20.03.2015 04:30 -1,4 C 75 % 1024,8 hPa 0,0 l/m 0,0 km/h (0 Bft) S 179 0 min 0,000 mm 0,0 UV-I 0 W/m -5,2 C -1,4 C 0,0 km/h (0 Bft) 0,00 %
20.03.2015 04:45 -1,8 C 77 % 1025,0 hPa 0,0 l/m 0,0 km/h (0 Bft) S 179 0 min 0,000 mm 0,0 UV-I 0 W/m -5,3 C -1,8 C 0,0 km/h (0 Bft) 0,00 %
20.03.2015 05:00 -1,6 C 76 % 1025,1 hPa 0,0 l/m 0,0 km/h (0 Bft) S 183 0 min 0,000 mm 0,0 UV-I 0 W/m -5,3 C -1,6 C 0,0 km/h (0 Bft) 0,00 %
20.03.2015 05:15 -1,7 C 76 % 1025,0 hPa 0,0 l/m 0,0 km/h (0 Bft) S-SW 196 0 min 0,000 mm 0,0 UV-I 0 W/m -5,4 C -1,7 C 0,0 km/h (0 Bft) 0,00 %
20.03.2015 05:30 -1,5 C 76 % 1025,0 hPa 0,0 l/m 0,0 km/h (0 Bft) S 181 0 min 0,000 mm 0,0 UV-I 0 W/m -5,2 C -1,5 C 0,0 km/h (0 Bft) 0,00 %
20.03.2015 05:45 -1,7 C 77 % 1025,1 hPa 0,0 l/m 0,0 km/h (0 Bft) S 185 0 min 0,000 mm 0,0 UV-I 0 W/m -5,2 C -1,7 C 0,0 km/h (0 Bft) 0,00 %
20.03.2015 06:00 -1,7 C 77 % 1025,0 hPa 0,0 l/m 0,0 km/h (0 Bft) S 178 0 min 0,000 mm 0,0 UV-I 0 W/m -5,2 C -1,7 C 0,0 km/h (0 Bft) 0,00 %
20.03.2015 06:15 -1,8 C 77 % 1025,0 hPa 0,0 l/m 0,0 km/h (0 Bft) S 175 0 min 0,000 mm 0,0 UV-I 2 W/m -5,3 C -1,8 C 0,0 km/h (0 Bft) 0,00 %
20.03.2015 06:30 -1,5 C 76 % 1025,3 hPa 0,0 l/m 0,0 km/h (0 Bft) S-SW 203 15 min 0,000 mm 0,0 UV-I 66 W/m -5,2 C -1,5 C 0,0 km/h (0 Bft) 0,00 %
20.03.2015 06:45 -1,1 C 75 % 1025,0 hPa 0,0 l/m 0,0 km/h (0 Bft) S-SW 203 15 min 0,000 mm 0,0 UV-I 77 W/m -5,0 C -1,1 C 0,0 km/h (0 Bft) 0,00 %
20.03.2015 07:00 -0,3 C 71 % 1025,2 hPa 0,0 l/m 0,0 km/h (0 Bft) S 174 15 min 0,000 mm 1,0 UV-I 99 W/m -4,9 C -0,3 C 0,0 km/h (0 Bft) 0,00 %
20.03.2015 07:15 1,6 C 63 % 1024,8 hPa 0,0 l/m 0,0 km/h (0 Bft) SO 137 15 min 0,000 mm 1,0 UV-I 134 W/m -4,7 C 1,6 C 0,0 km/h (0 Bft) 0,00 %
20.03.2015 07:30 2,1 C 61 % 1024,8 hPa 0,0 l/m 0,0 km/h (0 Bft) SO 133 15 min 0,000 mm 1,0 UV-I 166 W/m -4,6 C 2,1 C 0,0 km/h (0 Bft) 0,00 %
20.03.2015 07:45 2,0 C 62 % 1024,8 hPa 0,0 l/m 0,0 km/h (0 Bft) S-SW 198 15 min 0,000 mm 1,0 UV-I 177 W/m -4,5 C 2,0 C 0,0 km/h (0 Bft) 0,00 %
20.03.2015 08:00 2,5 C 60 % 1024,7 hPa 0,0 l/m 4,7 km/h (1 Bft) O 97 15 min 0,000 mm 1,0 UV-I 188 W/m -4,5 C 2,5 C 7,9 km/h (2 Bft) 0,00 %
20.03.2015 08:15 2,9 C 62 % 1024,8 hPa 0,0 l/m 0,0 km/h (0 Bft) O-SO 116 15 min 0,000 mm 1,0 UV-I 199 W/m -3,6 C 2,9 C 0,0 km/h (0 Bft) 0,00 %
20.03.2015 08:30 3,0 C 64 % 1024,7 hPa 0,0 l/m 0,0 km/h (0 Bft) O-SO 104 15 min 0,000 mm 2,0 UV-I 211 W/m -3,1 C 3,0 C 0,0 km/h (0 Bft) 0,00 %
20.03.2015 08:45 3,6 C 61 % 1024,6 hPa 0,0 l/m 1,8 km/h (1 Bft) O 83 0 min 0,000 mm 2,0 UV-I 222 W/m -3,2 C 3,6 C 4,0 km/h (1 Bft) 0,00 %
20.03.2015 09:00 4,4 C 57 % 1024,6 hPa 0,0 l/m 0,4 km/h (0 Bft) O-SO 114 0 min 0,000 mm 2,0 UV-I 200 W/m -3,4 C 4,4 C 4,0 km/h (1 Bft) 0,00 %
20.03.2015 09:15 4,7 C 55 % 1024,4 hPa 0,0 l/m 4,3 km/h (1 Bft) O 97 0 min 0,000 mm 2,0 UV-I 205 W/m -3,6 C 4,7 C 7,9 km/h (2 Bft) 0,00 %
20.03.2015 09:30 5,2 C 53 % 1024,3 hPa 0,0 l/m 6,8 km/h (2 Bft) O-SO 106 0 min 0,000 mm 2,0 UV-I 183 W/m -3,6 C 4,9 C 7,9 km/h (2 Bft) 0,00 %
20.03.2015 09:45 5,8 C 52 % 1024,0 hPa 0,0 l/m 1,4 km/h (1 Bft) O 92 0 min 0,000 mm 2,0 UV-I 192 W/m -3,3 C 5,8 C 4,0 km/h (1 Bft) 0,00 %
20.03.2015 10:00 6,1 C 52 % 1023,9 hPa 0,0 l/m 1,4 km/h (1 Bft) O-NO 75 0 min 0,000 mm 2,0 UV-I 174 W/m -3,0 C 6,1 C 4,0 km/h (1 Bft) 0,00 %
20.03.2015 10:15 5,7 C 54 % 1023,9 hPa 0,0 l/m 0,0 km/h (0 Bft) S 177 0 min 0,000 mm 1,0 UV-I 140 W/m -2,9 C 5,7 C 0,0 km/h (0 Bft) 0,00 %
20.03.2015 10:30 5,6 C 53 % 1023,6 hPa 0,0 l/m 1,8 km/h (1 Bft) O-SO 109 0 min 0,000 mm 1,0 UV-I 107 W/m -3,2 C 5,6 C 4,0 km/h (1 Bft) 0,00 %
20.03.2015 10:45 5,3 C 53 % 1023,6 hPa 0,0 l/m 0,7 km/h (0 Bft) O 99 0 min 0,000 mm 1,0 UV-I 103 W/m -3,5 C 5,3 C 4,0 km/h (1 Bft) 0,00 %
20.03.2015 11:00 5,4 C 52 % 1023,6 hPa 0,0 l/m 1,8 km/h (1 Bft) O-SO 110 0 min 0,000 mm 2,0 UV-I 97 W/m -3,7 C 5,4 C 4,0 km/h (1 Bft) 0,00 %
20.03.2015 11:15 5,6 C 53 % 1023,5 hPa 0,0 l/m 0,7 km/h (0 Bft) O-NO 78 0 min 0,000 mm 2,0 UV-I 237 W/m -3,2 C 5,6 C 4,0 km/h (1 Bft) 0,00 %
20.03.2015 11:30 6,3 C 51 % 1023,6 hPa 0,0 l/m 4,0 km/h (1 Bft) O-SO 112 0 min 0,000 mm 3,0 UV-I 342 W/m -3,1 C 6,3 C 4,0 km/h (1 Bft) 0,00 %
20.03.2015 11:45 7,0 C 48 % 1023,4 hPa 0,0 l/m 0,0 km/h (0 Bft) S 175 15 min 0,000 mm 4,0 UV-I 438 W/m -3,2 C 7,0 C 0,0 km/h (0 Bft) 0,00 %
20.03.2015 12:00 7,7 C 48 % 1023,2 hPa 0,0 l/m 0,0 km/h (0 Bft) O 100 15 min 0,000 mm 4,0 UV-I 483 W/m -2,6 C 7,7 C 0,0 km/h (0 Bft) 0,00 %
20.03.2015 12:15 8,2 C 44 % 1023,1 hPa 0,0 l/m 0,0 km/h (0 Bft) SO 125 15 min 0,000 mm 4,0 UV-I 511 W/m -3,3 C 8,2 C 0,0 km/h (0 Bft) 0,00 %
20.03.2015 12:30 8,8 C 43 % 1022,9 hPa 0,0 l/m 0,0 km/h (0 Bft) O-SO 120 0 min 0,000 mm 4,0 UV-I 142 W/m -3,1 C 8,8 C 0,0 km/h (0 Bft) 0,00 %
20.03.2015 12:45 9,5 C 41 % 1022,6 hPa 0,0 l/m 0,4 km/h (0 Bft) O-SO 111 15 min 0,000 mm 4,0 UV-I 548 W/m -3,1 C 9,5 C 4,0 km/h (1 Bft) 0,00 %
20.03.2015 13:00 9,7 C 39 % 1022,4 hPa 0,0 l/m 3,2 km/h (1 Bft) O-SO 107 15 min 0,000 mm 2,0 UV-I 550 W/m -3,6 C 9,7 C 4,0 km/h (1 Bft) 0,00 %
20.03.2015 13:15 9,9 C 38 % 1022,1 hPa 0,0 l/m 2,2 km/h (1 Bft) O-SO 112 15 min 0,000 mm 2,0 UV-I 555 W/m -3,7 C 9,9 C 4,0 km/h (1 Bft) 0,00 %
20.03.2015 13:30 10,2 C 34 % 1021,7 hPa 0,0 l/m 4,3 km/h (1 Bft) O 99 15 min 0,000 mm 2,0 UV-I 560 W/m -4,9 C 10,2 C 7,9 km/h (2 Bft) 0,00 %
20.03.2015 13:45 10,5 C 31 % 1021,5 hPa 0,0 l/m 0,0 km/h (0 Bft) O-SO 116 15 min 0,000 mm 2,0 UV-I 565 W/m -5,9 C 10,5 C 0,0 km/h (0 Bft) 0,00 %
20.03.2015 14:00 10,8 C 29 % 1021,3 hPa 0,0 l/m 1,8 km/h (1 Bft) O 95 15 min 0,000 mm 2,0 UV-I 570 W/m -6,5 C 10,8 C 4,0 km/h (1 Bft) 0,00 %
20.03.2015 14:15 10,9 C 29 % 1021,1 hPa 0,0 l/m 0,0 km/h (0 Bft) O 80 15 min 0,000 mm 2,0 UV-I 565 W/m -6,4 C 10,9 C 0,0 km/h (0 Bft) 0,00 %
20.03.2015 14:30 11,1 C 29 % 1021,0 hPa 0,0 l/m 0,0 km/h (0 Bft) O-SO 113 15 min 0,000 mm 2,0 UV-I 560 W/m -6,2 C 11,1 C 0,0 km/h (0 Bft) 0,00 %
20.03.2015 14:45 11,2 C 29 % 1020,6 hPa 0,0 l/m 0,0 km/h (0 Bft) O 100 15 min 0,000 mm 2,0 UV-I 555 W/m -6,2 C 11,2 C 0,0 km/h (0 Bft) 0,00 %
20.03.2015 15:00 11,4 C 28 % 1020,5 hPa 0,0 l/m 0,0 km/h (0 Bft) O 99 15 min 0,000 mm 2,0 UV-I 550 W/m -6,4 C 11,4 C 0,0 km/h (0 Bft) 0,00 %
20.03.2015 15:15 11,4 C 28 % 1020,3 hPa 0,0 l/m 0,0 km/h (0 Bft) O-NO 63 15 min 0,000 mm 2,0 UV-I 545 W/m -6,4 C 11,4 C 0,0 km/h (0 Bft) 0,00 %
20.03.2015 15:30 11,5 C 26 % 1020,0 hPa 0,0 l/m 0,0 km/h (0 Bft) O 80 15 min 0,000 mm 2,0 UV-I 540 W/m -7,3 C 11,5 C 0,0 km/h (0 Bft) 0,00 %
20.03.2015 15:45 11,5 C 26 % 1019,9 hPa 0,0 l/m 0,0 km/h (0 Bft) O 81 15 min 0,000 mm 1,0 UV-I 535 W/m -7,3 C 11,5 C 0,0 km/h (0 Bft) 0,00 %
20.03.2015 16:00 12,1 C 27 % 1019,7 hPa 0,0 l/m 0,0 km/h (0 Bft) O 87 15 min 0,000 mm 1,0 UV-I 472 W/m -6,3 C 12,1 C 0,0 km/h (0 Bft) 0,00 %
20.03.2015 16:15 12,4 C 23 % 1019,3 hPa 0,0 l/m 0,0 km/h (0 Bft) SW 229 15 min 0,000 mm 1,0 UV-I 450 W/m -8,1 C 12,4 C 0,0 km/h (0 Bft) 0,00 %
20.03.2015 16:30 12,7 C 24 % 1019,4 hPa 0,0 l/m 0,0 km/h (0 Bft) S 178 15 min 0,000 mm 1,0 UV-I 412 W/m -7,3 C 12,7 C 0,0 km/h (0 Bft) 0,00 %
20.03.2015 16:45 13,5 C 23 % 1019,0 hPa 0,0 l/m 0,0 km/h (0 Bft) SO 130 15 min 0,000 mm 1,0 UV-I 362 W/m -7,2 C 13,5 C 0,0 km/h (0 Bft) 0,00 %
20.03.2015 17:00 12,8 C 26 % 1018,9 hPa 0,0 l/m 0,0 km/h (0 Bft) S-SO 165 15 min 0,000 mm 1,0 UV-I 298 W/m -6,2 C 12,8 C 0,0 km/h (0 Bft) 0,00 %
20.03.2015 17:15 12,3 C 24 % 1019,0 hPa 0,0 l/m 0,0 km/h (0 Bft) S 179 15 min 0,000 mm 1,0 UV-I 220 W/m -7,7 C 12,3 C 0,0 km/h (0 Bft) 0,00 %
20.03.2015 17:30 11,8 C 29 % 1019,0 hPa 0,0 l/m 0,0 km/h (0 Bft) SO 132 15 min 0,000 mm 0,0 UV-I 171 W/m -5,6 C 11,8 C 0,0 km/h (0 Bft) 0,00 %
20.03.2015 17:45 10,9 C 32 % 1019,1 hPa 0,0 l/m 0,0 km/h (0 Bft) S-SO 148 15 min 0,000 mm 0,0 UV-I 99 W/m -5,1 C 10,9 C 0,0 km/h (0 Bft) 0,00 %
20.03.2015 18:00 9,8 C 40 % 1019,2 hPa 0,0 l/m 0,0 km/h (0 Bft) S-SO 159 15 min 0,000 mm 0,0 UV-I 35 W/m -3,1 C 9,8 C 0,0 km/h (0 Bft) 0,00 %
20.03.2015 18:15 8,4 C 44 % 1019,4 hPa 0,0 l/m 0,0 km/h (0 Bft) SO 141 0 min 0,000 mm 0,0 UV-I 2 W/m -3,1 C 8,4 C 0,0 km/h (0 Bft) 0,00 %
20.03.2015 18:30 7,6 C 44 % 1019,3 hPa 0,0 l/m 0,0 km/h (0 Bft) SO 142 0 min 0,000 mm 0,0 UV-I 0 W/m -3,9 C 7,6 C 0,0 km/h (0 Bft) 0,00 %
20.03.2015 18:45 6,9 C 46 % 1019,6 hPa 0,0 l/m 0,0 km/h (0 Bft) S 174 0 min 0,000 mm 0,0 UV-I 0 W/m -3,9 C 6,9 C 0,0 km/h (0 Bft) 0,00 %
20.03.2015 19:00 6,4 C 49 % 1019,5 hPa 0,0 l/m 0,0 km/h (0 Bft) S-SW 194 0 min 0,000 mm 0,0 UV-I 0 W/m -3,5 C 6,4 C 0,0 km/h (0 Bft) 0,00 %
20.03.2015 19:15 5,7 C 49 % 1019,8 hPa 0,0 l/m 0,0 km/h (0 Bft) S 191 0 min 0,000 mm 0,0 UV-I 0 W/m -4,2 C 5,7 C 0,0 km/h (0 Bft) 0,00 %
20.03.2015 19:30 5,3 C 51 % 1019,8 hPa 0,0 l/m 0,0 km/h (0 Bft) S-SW 194 0 min 0,000 mm 0,0 UV-I 0 W/m -4,0 C 5,3 C 0,0 km/h (0 Bft) 0,00 %
20.03.2015 19:45 4,7 C 52 % 1019,8 hPa 0,0 l/m 0,0 km/h (0 Bft) S 181 0 min 0,000 mm 0,0 UV-I 0 W/m -4,3 C 4,7 C 0,0 km/h (0 Bft) 0,00 %
20.03.2015 20:00 4,6 C 49 % 1020,0 hPa 0,0 l/m 0,0 km/h (0 Bft) S-SW 198 0 min 0,000 mm 0,0 UV-I 0 W/m -5,2 C 4,6 C 0,0 km/h (0 Bft) 0,00 %
20.03.2015 20:15 4,9 C 50 % 1020,0 hPa 0,0 l/m 0,0 km/h (0 Bft) S 190 0 min 0,000 mm 0,0 UV-I 0 W/m -4,6 C 4,9 C 0,0 km/h (0 Bft) 0,00 %
20.03.2015 20:30 4,5 C 53 % 1020,1 hPa 0,0 l/m 0,0 km/h (0 Bft) S 190 0 min 0,000 mm 0,0 UV-I 0 W/m -4,2 C 4,5 C 0,0 km/h (0 Bft) 0,00 %
20.03.2015 20:45 4,4 C 51 % 1020,0 hPa 0,0 l/m 0,0 km/h (0 Bft) S-SW 198 0 min 0,000 mm 0,0 UV-I 0 W/m -4,8 C 4,4 C 0,0 km/h (0 Bft) 0,00 %
20.03.2015 21:00 4,4 C 53 % 1020,0 hPa 0,0 l/m 0,0 km/h (0 Bft) S 185 0 min 0,000 mm 0,0 UV-I 0 W/m -4,3 C 4,4 C 0,0 km/h (0 Bft) 0,00 %
20.03.2015 21:15 3,9 C 57 % 1020,2 hPa 0,0 l/m 0,0 km/h (0 Bft) O-SO 102 0 min 0,000 mm 0,0 UV-I 0 W/m -3,8 C 3,9 C 0,0 km/h (0 Bft) 0,00 %
20.03.2015 21:30 3,0 C 57 % 1020,0 hPa 0,0 l/m 0,0 km/h (0 Bft) S 183 0 min 0,000 mm 0,0 UV-I 0 W/m -4,7 C 3,0 C 0,0 km/h (0 Bft) 0,00 %
20.03.2015 21:45 2,9 C 61 % 1020,1 hPa 0,0 l/m 0,0 km/h (0 Bft) S 173 0 min 0,000 mm 0,0 UV-I 0 W/m -3,9 C 2,9 C 0,0 km/h (0 Bft) 0,00 %
20.03.2015 22:00 2,8 C 60 % 1020,0 hPa 0,0 l/m 0,0 km/h (0 Bft) S 173 0 min 0,000 mm 0,0 UV-I 0 W/m -4,2 C 2,8 C 0,0 km/h (0 Bft) 0,00 %
20.03.2015 22:15 2,4 C 58 % 1020,1 hPa 0,0 l/m 0,0 km/h (0 Bft) S 176 0 min 0,000 mm 0,0 UV-I 0 W/m -5,0 C 2,4 C 0,0 km/h (0 Bft) 0,00 %
20.03.2015 22:30 2,0 C 61 % 1020,2 hPa 0,0 l/m 0,0 km/h (0 Bft) S 176 0 min 0,000 mm 0,0 UV-I 0 W/m -4,7 C 2,0 C 0,0 km/h (0 Bft) 0,00 %
20.03.2015 22:45 1,5 C 60 % 1020,2 hPa 0,0 l/m 0,0 km/h (0 Bft) S 175 0 min 0,000 mm 0,0 UV-I 0 W/m -5,4 C 1,5 C 0,0 km/h (0 Bft) 0,00 %
20.03.2015 23:00 1,7 C 61 % 1020,0 hPa 0,0 l/m 0,0 km/h (0 Bft) S 174 0 min 0,000 mm 0,0 UV-I 0 W/m -5,0 C 1,7 C 0,0 km/h (0 Bft) 0,00 %
20.03.2015 23:15 1,5 C 63 % 1019,9 hPa 0,0 l/m 0,0 km/h (0 Bft) S 177 0 min 0,000 mm 0,0 UV-I 0 W/m -4,8 C 1,5 C 0,0 km/h (0 Bft) 0,00 %
20.03.2015 23:30 1,6 C 63 % 1019,7 hPa 0,0 l/m 0,0 km/h (0 Bft) S 175 0 min 0,000 mm 0,0 UV-I 0 W/m -4,7 C 1,6 C 0,0 km/h (0 Bft) 0,00 %
20.03.2015 23:45 1,4 C 65 % 1019,7 hPa 0,0 l/m 0,0 km/h (0 Bft) S 176 0 min 0,000 mm 0,0 UV-I 0 W/m -4,4 C 1,4 C 0,0 km/h (0 Bft) 0,00 %
_ Min-Zeit 04:45 16:15 17:00 - 00:00 - - - - - - 16:15 04:45 00:00 00:00
Minimum _ -1,8 C 23 % 1018,9 hPa - 0,0 km/h (0 Bft) - - - - - - -8,1 C -1,8 C 0,0 km/h (0 Bft) 0,00 %
_ Max-Zeit 16:45 04:45 06:30 00:00 09:30 - - 06:30 00:00 11:45 14:00 12:00 16:45 08:00 00:00
Maximum _ 13,5 C 77 % 1025,3 hPa 0,0 l/m 6,8 km/h
O-SO (2 Bft)
- - 15 min 0,000 mm 4,0 UV-I 570 W/m -2,6 C 13,5 C 7,9 km/h
O (2 Bft)
0,00 %
Durchschnitt _ 4,5 C 54 % 1022,4 hPa #0,0 l/m 0,4 km/h (0 Bft) O - #8:30 h #0,000 mm 1,9 UV-I 302 W/m -4,8 C 4,5 C 0,9 km/h (0 Bft) 0,00 %